Погода в Узунбулаке

Узбекистан     39°55′21″N   67°39′40″E
темп.,
°C
ветер,
м/с
пор.,
м/с
влажн.,
%
обл.,
%
осадки,
мм/ч
давл.,
гПа
погр.,
м
27 февраля, сб
сб2723:00−6ююз1175100 0.0 102922
02:00−5юз2270100 0.0 102869
05:00−4юз3370100 0.0 102882
08:00−3зюз2369100 0.2 102889
11:000юз2354100 0.2 1029406
14:00+2зюз244562 0.0 1027958
17:00+2юв225331 0.0 102796
20:00−1ю12660 0.0 102921
28 февраля, вс
вс2823:00−2юз22620 0.0 102921
02:00−2ююз22590 0.0 102721
05:00−1ююз22560 0.0 102521
08:000вюв11550 0.0 102422
11:00+4ссв21480 0.0 1022239
14:00+7всв22430 0.0 1019380
17:00+7всв11490 0.0 1018193
20:00+3ююз005811 0.0 102022
1 марта, пн
пн123:00+3юз125355 0.0 102022
02:00+4ююз2243100 0.0 102022
05:00+4ююз2240100 0.0 102022
08:00+6ююз2237100 0.0 102022
11:00+12з112764 0.0 1019266
14:00+16зюз16180 0.0 10181441
17:00+16всв11270 0.0 1017170
20:00+11ююз33360 0.0 102023
2 марта, вт
вт223:00+10ю333423 0.0 102127
02:00+9ююз3334100 0.0 102127
05:00+9ююз2232100 0.0 102022
08:00+9юв0135100 0.0 102222
11:00+11св3334100 0.0 1021311
14:00+13ссв3333100 0.0 1020522
17:00+12св2237100 0.0 1020400
20:00+9всв1247100 0.0 102225
3 марта, ср
ср323:00+9вюв1255100 0.0 102227
02:00+8зсз1156100 0.0 102122
05:00+8юв1261100 0.1 102123
08:00+7ссв2268100 0.0 102197
11:00+7св2267100 0.0 1020296
14:00+9ссв1167100 0.2 1019633
17:00+8всв2270100 0.2 1018551
20:00+6вюв3487100 0.0 1018152